| time (UTC) | temp F | wind direction | speed knots | gust knots | rain 1hr in | rain 24hr in | rain mn in | humidity % | barometer mb |
| 20260507145020 | 57 | 331 | 2.6 | 5.2 | 0.00 | 0.09 | 0.00 | 49 | 1002.9 |
| 20260507145008 | 57 | 344 | 1.7 | 5.2 | 0.00 | 0.09 | 0.00 | 48 | 1002.9 |
| 20260507144507 | 57 | 13 | 1.7 | 5.2 | 0.00 | 0.09 | 0.00 | 51 | 1002.8 |
| 20260507144008 | 56 | 333 | 1.7 | 6.1 | 0.00 | 0.09 | 0.00 | 47 | 1002.9 |
| 20260507143543 | 56 | 341 | 1.7 | 6.1 | 0.00 | 0.09 | 0.00 | 51 | 1002.9 |
| 20260507143508 | 56 | 323 | 1.7 | 5.2 | 0.00 | 0.09 | 0.00 | 51 | 1002.9 |
| 20260507143032 | 56 | 317 | 2.6 | 5.2 | 0.00 | 0.09 | 0.00 | 49 | 1002.9 |
| 20260507143008 | 56 | 328 | 2.6 | 5.2 | 0.00 | 0.09 | 0.00 | 49 | 1002.9 |
| 20260507142522 | 56 | 9 | 2.6 | 5.2 | 0.00 | 0.09 | 0.00 | 49 | 1003.0 |
| 20260507142508 | 56 | 347 | 2.6 | 5.2 | 0.00 | 0.09 | 0.00 | 49 | 1003.0 |
| 20260507142020 | 56 | 309 | 1.7 | 5.2 | 0.00 | 0.09 | 0.00 | 48 | 1002.9 |
| 20260507142012 | 56 | 336 | 1.7 | 5.2 | 0.00 | 0.09 | 0.00 | 48 | 1002.9 |
| 20260507141520 | 55 | 290 | 0.9 | 5.2 | 0.00 | 0.09 | 0.00 | 54 | 1002.9 |
| 20260507141507 | 55 | 11 | 1.7 | 5.2 | 0.00 | 0.09 | 0.00 | 55 | 1002.9 |
| 20260507141008 | 55 | 336 | 1.7 | 5.2 | 0.00 | 0.09 | 0.00 | 49 | 1002.9 |
| 20260507140519 | 55 | 6 | 1.7 | 5.2 | 0.00 | 0.09 | 0.00 | 51 | 1003.0 |
| 20260507140047 | 55 | 6 | 1.7 | 7.0 | 0.00 | 0.09 | 0.00 | 48 | 1003.0 |
| 20260507140009 | 55 | 340 | 1.7 | 7.0 | 0.00 | 0.09 | 0.00 | 48 | 1003.0 |
| 20260507135508 | 55 | 28 | 1.7 | 7.0 | 0.00 | 0.12 | 0.00 | 50 | 1003.0 |
| 20260507135012 | 54 | 229 | 1.7 | 6.1 | 0.00 | 0.12 | 0.00 | 52 | 1003.0 |
| 20260507134532 | 54 | 28 | 2.6 | 6.1 | 0.00 | 0.12 | 0.00 | 54 | 1002.8 |
| 20260507134508 | 54 | 334 | 2.6 | 6.1 | 0.00 | 0.12 | 0.00 | 54 | 1002.8 |
| 20260507134020 | 54 | 46 | 1.7 | 6.1 | 0.00 | 0.12 | 0.00 | 49 | 1002.8 |
| 20260507134007 | 54 | 1 | 1.7 | 6.1 | 0.00 | 0.12 | 0.00 | 50 | 1002.8 |
| 20260507133508 | 54 | 336 | 2.6 | 6.1 | 0.00 | 0.12 | 0.00 | 53 | 1002.9 |
| 20260507133029 | 53 | 325 | 1.7 | 4.3 | 0.00 | 0.12 | 0.00 | 55 | 1002.9 |
| 20260507132508 | 53 | 1 | 1.7 | 5.2 | 0.00 | 0.12 | 0.00 | 60 | 1002.8 |
| 20260507132020 | 52 | 234 | 2.6 | 5.2 | 0.00 | 0.12 | 0.00 | 58 | 1003.0 |
| 20260507132012 | 52 | 277 | 2.6 | 5.2 | 0.00 | 0.12 | 0.00 | 58 | 1003.0 |
| 20260507131520 | 52 | 37 | 2.6 | 4.3 | 0.00 | 0.12 | 0.00 | 60 | 1002.9 |
| 20260507131507 | 52 | 1 | 1.7 | 4.3 | 0.00 | 0.12 | 0.00 | 60 | 1002.9 |
| 20260507131007 | 52 | 305 | 1.7 | 5.2 | 0.00 | 0.12 | 0.00 | 64 | 1002.9 |
| 20260507130531 | 51 | 161 | 0.9 | 5.2 | 0.00 | 0.12 | 0.00 | 64 | 1002.9 |
| 20260507130508 | 51 | 89 | 0.9 | 5.2 | 0.00 | 0.12 | 0.00 | 63 | 1002.9 |
| 20260507130022 | 50 | 56 | 1.7 | 4.3 | 0.00 | 0.12 | 0.00 | 64 | 1002.8 |
| 20260507130008 | 50 | 32 | 0.9 | 4.3 | 0.00 | 0.12 | 0.00 | 64 | 1002.8 |
| 20260507125520 | 50 | 319 | 2.6 | 4.3 | 0.00 | 0.16 | 0.00 | 69 | 1002.9 |
| 20260507125021 | 49 | 46 | 0.9 | 2.6 | 0.00 | 0.16 | 0.00 | 74 | 1002.9 |
| 20260507125008 | 49 | 46 | 0.9 | 2.6 | 0.00 | 0.16 | 0.00 | 74 | 1002.9 |
| 20260507124531 | 47 | 240 | 0.9 | 3.5 | 0.00 | 0.16 | 0.00 | 76 | 1002.8 |
| 20260507124508 | 47 | 223 | 0.9 | 3.5 | 0.00 | 0.16 | 0.00 | 76 | 1002.8 |
| 20260507124008 | 47 | 295 | 1.7 | 3.5 | 0.00 | 0.16 | 0.00 | 76 | 1002.9 |
| 20260507123531 | 46 | 344 | 0.9 | 2.6 | 0.00 | 0.16 | 0.00 | 81 | 1003.0 |
| 20260507123020 | 44 | 331 | 0.9 | 2.6 | 0.00 | 0.16 | 0.00 | 81 | 1003.0 |
| 20260507123008 | 44 | 117 | 0.9 | 2.6 | 0.00 | 0.16 | 0.00 | 83 | 1003.0 |
| 20260507122508 | 43 | 46 | 0.9 | 2.6 | 0.00 | 0.16 | 0.00 | 87 | 1003.0 |
| 20260507122032 | 43 | 23 | 0.9 | 2.6 | 0.00 | 0.16 | 0.00 | 88 | 1003.1 |
| 20260507122012 | 43 | 152 | 0.9 | 2.6 | 0.00 | 0.16 | 0.00 | 88 | 1003.1 |
| 20260507121520 | 42 | 1 | 0.9 | 2.6 | 0.00 | 0.16 | 0.00 | 90 | 1003.1 |
| 20260507121508 | 42 | 331 | 0.9 | 2.6 | 0.00 | 0.16 | 0.00 | 90 | 1003.1 |
| 20260507121020 | 42 | 206 | 0.9 | 2.6 | 0.00 | 0.16 | 0.00 | 91 | 1003.1 |
| 20260507121008 | 42 | 135 | 0.9 | 2.6 | 0.00 | 0.16 | 0.00 | 91 | 1003.1 |
| 20260507120508 | 41 | 145 | 0.9 | 1.7 | 0.00 | 0.16 | 0.00 | 92 | 1003.0 |
| 20260507120020 | 41 | 1 | 0.9 | 1.7 | 0.00 | 0.16 | 0.00 | 92 | 1003.0 |
| 20260507120008 | 41 | 360 | 0.9 | 1.7 | 0.00 | 0.16 | 0.00 | 92 | 1003.0 |
| 20260507115520 | 41 | 161 | 0.9 | 1.7 | 0.00 | 0.20 | 0.00 | 92 | 1003.0 |
| 20260507115507 | 41 | 127 | 0.9 | 1.7 | 0.00 | 0.20 | 0.00 | 92 | 1003.0 |
| 20260507115022 | 40 | 1 | 0.0 | 1.7 | 0.00 | 0.20 | 0.00 | 92 | 1003.1 |
| 20260507114521 | 40 | 1 | 0.0 | 0.9 | 0.00 | 0.20 | 0.00 | 91 | 1003.0 |
| 20260507114508 | 40 | 269 | 0.0 | 0.9 | 0.00 | 0.20 | 0.00 | 91 | 1003.0 |
| 20260507114013 | 40 | 89 | 0.0 | 0.9 | 0.00 | 0.20 | 0.00 | 91 | 1003.0 |
| 20260507113520 | 40 | 46 | 0.0 | 1.7 | 0.00 | 0.20 | 0.00 | 91 | 1003.0 |
| 20260507113508 | 40 | 178 | 0.0 | 1.7 | 0.00 | 0.20 | 0.00 | 91 | 1003.0 |
| 20260507113020 | 40 | 20 | 0.0 | 1.7 | 0.00 | 0.20 | 0.00 | 90 | 1003.0 |
| 20260507113007 | 40 | 324 | 0.0 | 1.7 | 0.00 | 0.20 | 0.00 | 90 | 1003.0 |
| 20260507112508 | 39 | 89 | 0.9 | 1.7 | 0.00 | 0.20 | 0.00 | 90 | 1003.0 |
| 20260507112014 | 39 | 269 | 0.0 | 0.9 | 0.00 | 0.20 | 0.00 | 89 | 1002.9 |
| 20260507111520 | 39 | 1 | 0.0 | 0.9 | 0.00 | 0.20 | 0.00 | 89 | 1002.9 |
| 20260507111509 | 39 | 46 | 0.0 | 0.9 | 0.00 | 0.20 | 0.00 | 89 | 1002.9 |
| 20260507111032 | 39 | 314 | 0.0 | 0.9 | 0.00 | 0.20 | 0.00 | 89 | 1002.8 |
| 20260507111012 | 39 | 314 | 0.0 | 0.9 | 0.00 | 0.20 | 0.00 | 89 | 1002.8 |
| 20260507110520 | 39 | 314 | 0.0 | 0.9 | 0.00 | 0.20 | 0.00 | 89 | 1002.6 |
| 20260507110508 | 39 | 269 | 0.0 | 0.9 | 0.00 | 0.20 | 0.00 | 89 | 1002.6 |
| 20260507110032 | 39 | 314 | 0.0 | 0.9 | 0.00 | 0.20 | 0.00 | 89 | 1002.5 |
| 20260507110008 | 39 | 1 | 0.0 | 0.9 | 0.00 | 0.20 | 0.00 | 89 | 1002.5 |
| 20260507105508 | 39 | 295 | 0.0 | 0.9 | 0.00 | 0.25 | 0.00 | 89 | 1002.5 |
| 20260507105006 | 40 | 295 | 0.0 | 0.9 | 0.00 | 0.25 | 0.00 | 88 | 1002.4 |
| 20260507104531 | 40 | 1 | 0.0 | 0.9 | 0.00 | 0.25 | 0.00 | 89 | 1002.2 |
| 20260507104508 | 40 | 46 | 0.0 | 0.9 | 0.00 | 0.25 | 0.00 | 89 | 1002.2 |
| 20260507104008 | 40 | 178 | 0.0 | 0.9 | 0.00 | 0.25 | 0.00 | 89 | 1002.3 |
| 20260507103518 | 40 | 269 | 0.0 | 0.9 | 0.00 | 0.25 | 0.00 | 89 | 1002.2 |
| 20260507103020 | 40 | 1 | 0.0 | 0.9 | 0.00 | 0.25 | 0.00 | 89 | 1002.2 |
| 20260507103008 | 40 | 314 | 0.0 | 0.9 | 0.00 | 0.25 | 0.00 | 89 | 1002.2 |
| 20260507102508 | 40 | 314 | 0.0 | 0.9 | 0.00 | 0.25 | 0.00 | 89 | 1002.3 |
| 20260507102031 | 40 | 269 | 0.0 | 0.9 | 0.00 | 0.25 | 0.00 | 88 | 1002.4 |
| 20260507102012 | 40 | 46 | 0.0 | 0.9 | 0.00 | 0.25 | 0.00 | 88 | 1002.4 |
| 20260507101521 | 40 | 178 | 0.0 | 0.9 | 0.00 | 0.25 | 0.00 | 89 | 1002.4 |
| 20260507101508 | 40 | 269 | 0.0 | 0.9 | 0.00 | 0.25 | 0.00 | 89 | 1002.4 |
| 20260507101020 | 40 | 89 | 0.0 | 0.9 | 0.00 | 0.25 | 0.00 | 89 | 1002.3 |
| 20260507101008 | 40 | 46 | 0.0 | 0.9 | 0.00 | 0.25 | 0.00 | 89 | 1002.3 |
| 20260507100520 | 40 | 360 | 0.0 | 0.9 | 0.00 | 0.25 | 0.00 | 89 | 1002.4 |
| 20260507100508 | 40 | 295 | 0.0 | 0.9 | 0.00 | 0.25 | 0.00 | 89 | 1002.4 |
| 20260507100008 | 40 | 269 | 0.0 | 0.9 | 0.00 | 0.25 | 0.00 | 89 | 1002.3 |
| 20260507095518 | 40 | 223 | 0.0 | 0.9 | 0.00 | 0.31 | 0.00 | 88 | 1002.3 |
| 20260507095008 | 41 | 223 | 0.0 | 0.9 | 0.00 | 0.31 | 0.00 | 89 | 1002.4 |
| 20260507094521 | 41 | 269 | 0.0 | 0.0 | 0.00 | 0.31 | 0.00 | 89 | 1002.4 |
| 20260507094508 | 41 | 46 | 0.0 | 0.0 | 0.00 | 0.31 | 0.00 | 89 | 1002.4 |
| 20260507094008 | 41 | 269 | 0.0 | 0.9 | 0.00 | 0.31 | 0.00 | 89 | 1002.2 |
| 20260507093520 | 41 | 46 | 0.0 | 0.9 | 0.00 | 0.31 | 0.00 | 89 | 1002.2 |
| 20260507093507 | 41 | 269 | 0.0 | 0.9 | 0.00 | 0.31 | 0.00 | 89 | 1002.2 |
| 20260507093020 | 41 | 269 | 0.9 | 0.9 | 0.00 | 0.31 | 0.00 | 89 | 1002.3 |
| 20260507093013 | 41 | 302 | 0.9 | 0.9 | 0.00 | 0.31 | 0.00 | 89 | 1002.3 |
| 20260507092508 | 41 | 295 | 0.0 | 0.9 | 0.00 | 0.31 | 0.00 | 89 | 1002.2 |
| 20260507092012 | 41 | 269 | 0.0 | 0.9 | 0.00 | 0.31 | 0.00 | 89 | 1002.1 |
| 20260507091514 | 41 | 314 | 0.0 | 0.9 | 0.00 | 0.31 | 0.00 | 89 | 1002.1 |
| 20260507091008 | 41 | 295 | 0.0 | 0.9 | 0.00 | 0.31 | 0.00 | 89 | 1002.1 |
| 20260507090520 | 41 | 1 | 0.0 | 0.9 | 0.00 | 0.31 | 0.00 | 89 | 1002.1 |
| 20260507090508 | 41 | 314 | 0.0 | 0.9 | 0.00 | 0.31 | 0.00 | 89 | 1002.1 |
| 20260507090020 | 41 | 269 | 0.0 | 0.9 | 0.00 | 0.31 | 0.00 | 89 | 1002.1 |
| 20260507090008 | 41 | 46 | 0.0 | 0.9 | 0.00 | 0.31 | 0.00 | 89 | 1002.1 |
| 20260507085508 | 41 | 46 | 0.0 | 0.9 | 0.00 | 0.38 | 0.00 | 89 | 1002.1 |
| 20260507085008 | 41 | 331 | 0.0 | 0.9 | 0.00 | 0.38 | 0.00 | 89 | 1002.0 |
| 20260507084507 | 41 | 314 | 0.0 | 0.9 | 0.00 | 0.38 | 0.00 | 89 | 1001.9 |
| 20260507084019 | 41 | 1 | 0.9 | 0.9 | 0.00 | 0.38 | 0.00 | 88 | 1001.9 |
| 20260507083508 | 42 | 314 | 0.0 | 0.9 | 0.00 | 0.38 | 0.00 | 88 | 1001.9 |
| 20260507083008 | 42 | 331 | 0.0 | 0.9 | 0.00 | 0.38 | 0.00 | 88 | 1001.8 |
| 20260507082508 | 42 | 1 | 0.0 | 0.9 | 0.00 | 0.38 | 0.00 | 88 | 1001.8 |
| 20260507082012 | 42 | 269 | 0.0 | 0.9 | 0.00 | 0.38 | 0.00 | 89 | 1001.7 |
| 20260507081521 | 42 | 46 | 0.0 | 0.9 | 0.00 | 0.38 | 0.00 | 88 | 1001.7 |
| 20260507081508 | 42 | 269 | 0.0 | 0.9 | 0.00 | 0.38 | 0.00 | 88 | 1001.7 |
| 20260507081030 | 42 | 314 | 0.0 | 0.9 | 0.00 | 0.38 | 0.00 | 88 | 1001.8 |
| 20260507080507 | 42 | 1 | 0.0 | 0.9 | 0.00 | 0.38 | 0.00 | 88 | 1001.7 |
| 20260507080020 | 42 | 314 | 0.0 | 0.9 | 0.00 | 0.38 | 0.00 | 88 | 1001.8 |
| 20260507080012 | 42 | 1 | 0.0 | 0.9 | 0.00 | 0.38 | 0.00 | 88 | 1001.8 |
| 20260507075508 | 42 | 314 | 0.0 | 0.9 | 0.00 | 0.45 | 0.00 | 88 | 1001.8 |
| 20260507075012 | 42 | 1 | 0.0 | 0.9 | 0.00 | 0.45 | 0.00 | 88 | 1001.8 |
| 20260507074520 | 42 | 223 | 0.0 | 0.9 | 0.00 | 0.45 | 0.00 | 88 | 1001.7 |
| 20260507074507 | 42 | 178 | 0.0 | 0.9 | 0.00 | 0.45 | 0.00 | 88 | 1001.7 |
| 20260507074007 | 42 | 223 | 0.0 | 0.9 | 0.00 | 0.45 | 0.00 | 88 | 1001.7 |
| 20260507073522 | 43 | 46 | 0.0 | 0.9 | 0.00 | 0.45 | 0.00 | 88 | 1001.7 |
| 20260507073518 | 43 | 269 | 0.0 | 0.9 | 0.00 | 0.45 | 0.00 | 88 | 1001.7 |
| 20260507073020 | 43 | 314 | 0.0 | 0.9 | 0.00 | 0.45 | 0.00 | 88 | 1001.7 |
| 20260507073008 | 43 | 286 | 0.0 | 0.9 | 0.00 | 0.45 | 0.00 | 88 | 1001.7 |
| 20260507072508 | 43 | 1 | 0.0 | 0.9 | 0.00 | 0.45 | 0.00 | 88 | 1001.7 |
| 20260507072012 | 43 | 269 | 0.0 | 0.9 | 0.00 | 0.45 | 0.00 | 88 | 1001.8 |
| 20260507071520 | 43 | 1 | 0.9 | 0.9 | 0.00 | 0.45 | 0.00 | 88 | 1001.8 |
| 20260507071508 | 43 | 314 | 0.9 | 0.9 | 0.00 | 0.45 | 0.00 | 88 | 1001.8 |
| 20260507071019 | 43 | 269 | 0.0 | 0.9 | 0.00 | 0.45 | 0.00 | 88 | 1001.8 |
| 20260507070508 | 43 | 269 | 0.0 | 0.9 | 0.00 | 0.45 | 0.00 | 88 | 1001.9 |
| 20260507070012 | 43 | 269 | 0.0 | 0.9 | 0.00 | 0.45 | 0.00 | 87 | 1001.9 |
| 20260507065531 | 43 | 46 | 0.0 | 0.9 | 0.00 | 0.52 | 0.00 | 87 | 1001.8 |
| 20260507065018 | 43 | 314 | 0.0 | 0.9 | 0.00 | 0.52 | 0.00 | 87 | 1001.7 |
| 20260507064518 | 43 | 1 | 0.0 | 0.9 | 0.00 | 0.52 | 0.00 | 87 | 1001.8 |
| 20260507064008 | 43 | 46 | 0.0 | 0.0 | 0.00 | 0.52 | 0.00 | 87 | 1001.8 |
| 20260507063519 | 44 | 178 | 0.0 | 0.0 | 0.00 | 0.52 | 0.00 | 87 | 1001.8 |
| 20260507063031 | 44 | 46 | 0.0 | 0.9 | 0.00 | 0.52 | 0.00 | 86 | 1001.9 |
| 20260507062520 | 44 | 314 | 0.0 | 0.9 | 0.00 | 0.52 | 0.00 | 87 | 1002.0 |
| 20260507062508 | 44 | 269 | 0.0 | 0.9 | 0.00 | 0.52 | 0.00 | 87 | 1002.0 |
| 20260507062022 | 44 | 314 | 0.0 | 0.9 | 0.00 | 0.52 | 0.00 | 86 | 1002.0 |
| 20260507061531 | 44 | 1 | 0.0 | 0.9 | 0.00 | 0.52 | 0.00 | 86 | 1002.0 |
| 20260507061508 | 44 | 331 | 0.0 | 0.9 | 0.00 | 0.52 | 0.00 | 86 | 1002.0 |
| 20260507061012 | 44 | 314 | 0.0 | 0.9 | 0.00 | 0.52 | 0.00 | 86 | 1001.9 |
| 20260507060508 | 44 | 314 | 0.0 | 0.9 | 0.00 | 0.52 | 0.00 | 86 | 1001.9 |
| 20260507060022 | 44 | 269 | 0.0 | 0.9 | 0.00 | 0.52 | 0.00 | 86 | 1001.9 |
| 20260507060019 | 44 | 314 | 0.0 | 0.9 | 0.00 | 0.52 | 0.00 | 86 | 1001.9 |
| 20260507055509 | 44 | 1 | 0.0 | 0.9 | 0.00 | 0.58 | 0.00 | 86 | 1002.0 |
| 20260507055007 | 44 | 1 | 0.0 | 0.9 | 0.00 | 0.58 | 0.00 | 86 | 1001.9 |
| 20260507054520 | 44 | 240 | 0.0 | 0.9 | 0.00 | 0.58 | 0.00 | 86 | 1002.0 |
| 20260507054507 | 44 | 269 | 0.0 | 0.9 | 0.00 | 0.58 | 0.00 | 86 | 1002.0 |
| 20260507054009 | 45 | 240 | 0.0 | 0.0 | 0.00 | 0.58 | 0.00 | 86 | 1001.9 |
| 20260507053520 | 45 | 223 | 0.0 | 0.9 | 0.00 | 0.58 | 0.00 | 86 | 1002.0 |
| 20260507053507 | 45 | 178 | 0.0 | 0.9 | 0.00 | 0.58 | 0.00 | 86 | 1002.0 |
| 20260507053007 | 45 | 269 | 0.0 | 0.9 | 0.00 | 0.58 | 0.00 | 86 | 1002.1 |
| 20260507052507 | 45 | 223 | 0.0 | 0.9 | 0.00 | 0.58 | 0.00 | 86 | 1002.0 |
| 20260507052012 | 45 | 269 | 0.0 | 0.9 | 0.00 | 0.58 | 0.00 | 86 | 1002.0 |
| 20260507051521 | 45 | 314 | 0.0 | 0.9 | 0.00 | 0.58 | 0.00 | 85 | 1002.0 |
| 20260507051508 | 45 | 1 | 0.0 | 0.9 | 0.00 | 0.58 | 0.00 | 85 | 1002.0 |
| 20260507051020 | 45 | 1 | 0.9 | 0.9 | 0.00 | 0.58 | 0.00 | 85 | 1002.0 |
| 20260507051008 | 45 | 314 | 0.9 | 0.9 | 0.00 | 0.58 | 0.00 | 85 | 1002.0 |
| 20260507050520 | 45 | 295 | 0.0 | 0.9 | 0.00 | 0.58 | 0.00 | 85 | 1001.9 |
| 20260507050508 | 45 | 314 | 0.0 | 0.9 | 0.00 | 0.58 | 0.00 | 85 | 1001.9 |
| 20260507050020 | 45 | 269 | 0.0 | 0.9 | 0.00 | 0.58 | 0.00 | 86 | 1002.0 |
| 20260507050008 | 45 | 46 | 0.0 | 0.9 | 0.00 | 0.58 | 0.00 | 86 | 1002.0 |
| 20260507045508 | 46 | 269 | 0.0 | 0.9 | 0.00 | 0.62 | 0.00 | 86 | 1002.1 |
| 20260507045020 | 46 | 314 | 0.0 | 0.9 | 0.00 | 0.62 | 0.00 | 85 | 1002.0 |
| 20260507045008 | 46 | 269 | 0.0 | 0.9 | 0.00 | 0.62 | 0.00 | 85 | 1002.0 |
| 20260507044521 | 46 | 269 | 0.0 | 0.9 | 0.00 | 0.62 | 0.00 | 85 | 1002.0 |
| 20260507044508 | 46 | 46 | 0.0 | 0.9 | 0.00 | 0.62 | 0.00 | 85 | 1002.0 |
| 20260507044008 | 46 | 178 | 0.0 | 0.9 | 0.00 | 0.62 | 0.00 | 85 | 1002.1 |
| 20260507043508 | 46 | 223 | 0.0 | 0.9 | 0.00 | 0.62 | 0.00 | 85 | 1002.2 |
| 20260507043020 | 46 | 152 | 0.0 | 0.9 | 0.00 | 0.62 | 0.00 | 85 | 1002.2 |
| 20260507043007 | 46 | 223 | 0.0 | 0.9 | 0.00 | 0.62 | 0.00 | 85 | 1002.2 |
| 20260507042508 | 46 | 152 | 0.0 | 0.9 | 0.00 | 0.62 | 0.00 | 84 | 1002.2 |
| 20260507042008 | 47 | 46 | 0.0 | 0.9 | 0.00 | 0.62 | 0.00 | 84 | 1002.1 |
| 20260507041520 | 47 | 178 | 0.0 | 0.9 | 0.00 | 0.62 | 0.00 | 84 | 1002.0 |
| 20260507041508 | 47 | 135 | 0.0 | 0.9 | 0.00 | 0.62 | 0.00 | 84 | 1002.0 |
| 20260507041007 | 47 | 269 | 0.0 | 0.9 | 0.00 | 0.62 | 0.00 | 83 | 1002.2 |
| 20260507040531 | 47 | 178 | 0.0 | 0.9 | 0.00 | 0.62 | 0.00 | 83 | 1002.2 |
| 20260507040508 | 47 | 46 | 0.0 | 0.9 | 0.00 | 0.62 | 0.00 | 83 | 1002.2 |
| 20260507040013 | 47 | 223 | 0.0 | 0.9 | 0.00 | 0.62 | 0.00 | 82 | 1002.2 |
| 20260507035518 | 48 | 223 | 0.0 | 0.0 | 0.00 | 0.67 | 0.62 | 81 | 1002.0 |
| 20260507035007 | 48 | 46 | 0.0 | 0.9 | 0.00 | 0.67 | 0.62 | 81 | 1002.0 |
| 20260507034507 | 48 | 240 | 0.0 | 0.9 | 0.00 | 0.67 | 0.62 | 81 | 1001.9 |
| 20260507034008 | 48 | 331 | 0.0 | 0.9 | 0.00 | 0.67 | 0.62 | 81 | 1002.0 |
| 20260507033521 | 48 | 46 | 0.0 | 0.9 | 0.00 | 0.67 | 0.62 | 81 | 1002.0 |
| 20260507033508 | 48 | 269 | 0.0 | 0.9 | 0.00 | 0.67 | 0.62 | 81 | 1002.0 |
| 20260507033008 | 49 | 46 | 0.0 | 0.9 | 0.00 | 0.67 | 0.62 | 80 | 1002.1 |
| 20260507032519 | 49 | 269 | 0.0 | 0.9 | 0.00 | 0.67 | 0.62 | 80 | 1002.1 |
| 20260507032023 | 49 | 152 | 0.0 | 0.9 | 0.00 | 0.67 | 0.62 | 80 | 1002.1 |
| 20260507031508 | 49 | 206 | 0.0 | 0.9 | 0.00 | 0.67 | 0.62 | 79 | 1002.2 |
| 20260507031010 | 50 | 135 | 0.0 | 0.9 | 0.00 | 0.67 | 0.62 | 79 | 1002.1 |
| 20260507030506 | 50 | 197 | 0.9 | 0.9 | 0.00 | 0.67 | 0.62 | 78 | 1002.1 |
| 20260507030021 | 50 | 178 | 0.0 | 0.9 | 0.00 | 0.67 | 0.62 | 76 | 1002.0 |
| 20260507030008 | 50 | 206 | 0.0 | 0.9 | 0.00 | 0.67 | 0.62 | 76 | 1002.0 |
| 20260507025520 | 50 | 331 | 0.0 | 0.9 | 0.00 | 0.76 | 0.62 | 75 | 1002.1 |
| 20260507025507 | 50 | 314 | 0.0 | 0.9 | 0.00 | 0.76 | 0.62 | 75 | 1002.1 |
| 20260507025007 | 50 | 314 | 0.0 | 0.0 | 0.00 | 0.76 | 0.62 | 76 | 1002.0 |
| 20260507024520 | 51 | 269 | 0.0 | 0.0 | 0.00 | 0.76 | 0.62 | 75 | 1002.0 |
| 20260507024508 | 51 | 1 | 0.0 | 0.0 | 0.00 | 0.76 | 0.62 | 75 | 1002.0 |
| 20260507024019 | 51 | 269 | 0.0 | 0.9 | 0.00 | 0.76 | 0.62 | 73 | 1002.0 |
| 20260507023531 | 51 | 46 | 0.0 | 0.9 | 0.00 | 0.76 | 0.62 | 74 | 1002.0 |
| 20260507023508 | 51 | 269 | 0.0 | 0.9 | 0.00 | 0.76 | 0.62 | 74 | 1002.0 |
| 20260507023020 | 52 | 269 | 0.0 | 0.0 | 0.00 | 0.76 | 0.62 | 73 | 1001.9 |
| 20260507023008 | 52 | 46 | 0.0 | 0.0 | 0.00 | 0.76 | 0.62 | 73 | 1001.9 |
| 20260507022520 | 52 | 1 | 0.0 | 0.0 | 0.00 | 0.76 | 0.62 | 72 | 1001.9 |
| 20260507022015 | 52 | 223 | 0.0 | 0.9 | 0.00 | 0.76 | 0.62 | 71 | 1002.0 |
| 20260507021523 | 52 | 269 | 0.0 | 0.9 | 0.00 | 0.76 | 0.62 | 70 | 1001.8 |
| 20260507021519 | 52 | 269 | 0.0 | 0.9 | 0.00 | 0.76 | 0.62 | 69 | 1001.8 |
| 20260507021006 | 52 | 314 | 0.0 | 0.9 | 0.00 | 0.76 | 0.62 | 69 | 1001.7 |
| 20260507020520 | 53 | 314 | 0.0 | 0.9 | 0.00 | 0.76 | 0.62 | 70 | 1001.7 |
| 20260507020509 | 53 | 295 | 0.0 | 0.9 | 0.00 | 0.76 | 0.62 | 70 | 1001.7 |
| 20260507020017 | 53 | 46 | 0.0 | 0.9 | 0.00 | 0.76 | 0.62 | 68 | 1001.7 |
| 20260507015507 | 53 | 331 | 0.0 | 0.9 | 0.00 | 0.81 | 0.62 | 67 | 1001.7 |
| 20260507015008 | 53 | 314 | 0.0 | 0.0 | 0.00 | 0.81 | 0.62 | 69 | 1001.7 |
| 20260507014519 | 54 | 178 | 0.0 | 0.0 | 0.00 | 0.81 | 0.62 | 69 | 1001.6 |
| 20260507014019 | 54 | 314 | 0.0 | 0.0 | 0.00 | 0.81 | 0.62 | 66 | 1001.6 |
| 20260507013520 | 54 | 1 | 0.0 | 0.0 | 0.00 | 0.81 | 0.62 | 66 | 1001.6 |
| 20260507013509 | 54 | 46 | 0.0 | 0.0 | 0.00 | 0.81 | 0.62 | 66 | 1001.6 |
| 20260507013020 | 54 | 269 | 0.0 | 0.9 | 0.00 | 0.81 | 0.62 | 64 | 1001.6 |
| 20260507013008 | 54 | 46 | 0.0 | 0.9 | 0.00 | 0.81 | 0.62 | 64 | 1001.6 |
| 20260507012508 | 55 | 314 | 0.0 | 0.9 | 0.00 | 0.81 | 0.62 | 62 | 1001.7 |
| 20260507012007 | 55 | 223 | 0.0 | 0.9 | 0.00 | 0.81 | 0.62 | 62 | 1001.5 |
| 20260507011522 | 55 | 46 | 0.0 | 0.9 | 0.00 | 0.81 | 0.62 | 62 | 1001.3 |
| 20260507011506 | 55 | 314 | 0.0 | 0.9 | 0.00 | 0.81 | 0.62 | 62 | 1001.3 |
| 20260507011020 | 55 | 314 | 0.0 | 0.9 | 0.00 | 0.81 | 0.62 | 61 | 1001.2 |
| 20260507011013 | 55 | 46 | 0.0 | 0.9 | 0.00 | 0.81 | 0.62 | 61 | 1001.2 |
| 20260507010520 | 55 | 269 | 0.0 | 0.9 | 0.00 | 0.81 | 0.62 | 60 | 1001.1 |
| 20260507010508 | 55 | 314 | 0.0 | 0.9 | 0.00 | 0.81 | 0.62 | 61 | 1001.1 |
| 20260507010009 | 56 | 295 | 0.9 | 0.9 | 0.00 | 0.81 | 0.62 | 61 | 1001.1 |
| 20260507005508 | 56 | 269 | 0.0 | 0.9 | 0.00 | 0.82 | 0.62 | 60 | 1001.1 |
| 20260507005008 | 56 | 331 | 0.0 | 1.7 | 0.00 | 0.82 | 0.62 | 60 | 1001.2 |
| 20260507004521 | 56 | 269 | 0.0 | 1.7 | 0.00 | 0.82 | 0.62 | 60 | 1001.1 |
| 20260507004507 | 56 | 314 | 0.0 | 1.7 | 0.00 | 0.82 | 0.62 | 60 | 1001.1 |
| 20260507004021 | 56 | 286 | 0.9 | 1.7 | 0.00 | 0.82 | 0.62 | 58 | 1001.0 |
| 20260507004010 | 56 | 314 | 0.0 | 1.7 | 0.00 | 0.82 | 0.62 | 58 | 1001.0 |
| 20260507003520 | 57 | 314 | 0.9 | 3.5 | 0.00 | 0.82 | 0.62 | 58 | 1001.2 |
| 20260507003508 | 57 | 269 | 0.9 | 3.5 | 0.00 | 0.82 | 0.62 | 58 | 1001.2 |
| 20260507003009 | 57 | 152 | 0.9 | 4.3 | 0.00 | 0.82 | 0.62 | 58 | 1001.0 |
| 20260507002506 | 57 | 46 | 0.0 | 4.3 | 0.00 | 0.82 | 0.62 | 58 | 1001.2 |
| 20260507002012 | 57 | 286 | 0.9 | 3.5 | 0.00 | 0.82 | 0.62 | 58 | 1000.9 |
| 20260507001520 | 57 | 334 | 0.9 | 3.5 | 0.00 | 0.82 | 0.62 | 58 | 1000.9 |
| 20260507001508 | 57 | 340 | 0.9 | 3.5 | 0.00 | 0.82 | 0.62 | 58 | 1000.9 |
| 20260507001020 | 57 | 336 | 0.9 | 3.5 | 0.00 | 0.82 | 0.62 | 57 | 1000.9 |
| 20260507001012 | 57 | 324 | 0.9 | 3.5 | 0.00 | 0.82 | 0.62 | 57 | 1000.9 |
| 20260507000532 | 57 | 295 | 0.9 | 4.3 | 0.00 | 0.82 | 0.62 | 58 | 1000.8 |
| 20260507000507 | 57 | 269 | 0.9 | 4.3 | 0.00 | 0.82 | 0.62 | 58 | 1000.8 |
| 20260507000020 | 58 | 314 | 1.7 | 4.3 | 0.00 | 0.82 | 0.62 | 56 | 1000.8 |
| 20260507000008 | 58 | 28 | 1.7 | 4.3 | 0.00 | 0.82 | 0.62 | 57 | 1000.8 |
| 20260506235507 | 58 | 178 | 0.9 | 4.3 | 0.00 | 0.83 | 0.62 | 60 | 1000.8 |
| 20260506235020 | 58 | 269 | 0.9 | 4.3 | 0.00 | 0.83 | 0.62 | 58 | 1000.8 |
| 20260506235008 | 58 | 15 | 1.7 | 4.3 | 0.00 | 0.83 | 0.62 | 58 | 1000.8 |
| 20260506234520 | 58 | 314 | 0.9 | 2.6 | 0.00 | 0.83 | 0.62 | 59 | 1000.7 |
| 20260506234508 | 58 | 286 | 0.9 | 2.6 | 0.00 | 0.83 | 0.62 | 59 | 1000.7 |
| 20260506234019 | 58 | 353 | 0.9 | 4.3 | 0.00 | 0.83 | 0.62 | 60 | 1000.6 |
| 20260506233508 | 58 | 314 | 1.7 | 4.3 | 0.00 | 0.83 | 0.62 | 57 | 1000.5 |
| 20260506233021 | 58 | 331 | 1.7 | 3.5 | 0.00 | 0.83 | 0.62 | 57 | 1000.5 |
| 20260506233011 | 58 | 323 | 1.7 | 3.5 | 0.00 | 0.83 | 0.62 | 57 | 1000.5 |
| 20260506232519 | 58 | 331 | 0.9 | 2.6 | 0.00 | 0.83 | 0.62 | 56 | 1000.5 |
| 20260506232008 | 58 | 216 | 0.9 | 5.2 | 0.00 | 0.83 | 0.62 | 56 | 1000.5 |
| 20260506231531 | 59 | 157 | 1.7 | 5.2 | 0.00 | 0.83 | 0.62 | 55 | 1000.4 |
| 20260506231508 | 58 | 89 | 1.7 | 5.2 | 0.00 | 0.83 | 0.62 | 55 | 1000.4 |
| 20260506231008 | 59 | 240 | 0.9 | 2.6 | 0.00 | 0.83 | 0.62 | 55 | 1000.3 |
| 20260506230520 | 59 | 152 | 1.7 | 3.5 | 0.00 | 0.83 | 0.62 | 55 | 1000.1 |
| 20260506230508 | 59 | 20 | 1.7 | 3.5 | 0.00 | 0.83 | 0.62 | 55 | 1000.1 |
| 20260506230020 | 59 | 35 | 1.7 | 5.2 | 0.00 | 0.83 | 0.62 | 55 | 1000.0 |
| 20260506230012 | 59 | 6 | 1.7 | 5.2 | 0.00 | 0.83 | 0.62 | 55 | 1000.0 |
| 20260506225508 | 59 | 328 | 1.7 | 5.2 | 0.00 | 0.85 | 0.62 | 53 | 1000.0 |
| 20260506225020 | 59 | 18 | 1.7 | 3.5 | 0.00 | 0.85 | 0.62 | 55 | 1000.0 |
| 20260506225007 | 59 | 343 | 1.7 | 3.5 | 0.00 | 0.85 | 0.62 | 54 | 1000.0 |
| 20260506224529 | 59 | 178 | 0.9 | 3.5 | 0.00 | 0.85 | 0.62 | 56 | 1000.3 |
| 20260506224508 | 59 | 314 | 1.7 | 3.5 | 0.00 | 0.85 | 0.62 | 56 | 1000.3 |
| 20260506224019 | 59 | 89 | 0.9 | 6.1 | 0.00 | 0.85 | 0.62 | 54 | 1000.3 |
| 20260506223533 | 59 | 346 | 2.6 | 6.1 | 0.00 | 0.85 | 0.62 | 55 | 1000.2 |
| 20260506223508 | 59 | 326 | 2.6 | 6.1 | 0.00 | 0.85 | 0.62 | 55 | 1000.2 |
| 20260506223020 | 59 | 11 | 0.9 | 3.5 | 0.00 | 0.85 | 0.62 | 53 | 1000.2 |
| 20260506223008 | 59 | 1 | 0.9 | 3.5 | 0.00 | 0.85 | 0.62 | 53 | 1000.2 |
| 20260506222508 | 59 | 135 | 0.9 | 3.5 | 0.00 | 0.85 | 0.62 | 54 | 1000.4 |
| 20260506222007 | 59 | 269 | 1.7 | 3.5 | 0.00 | 0.85 | 0.62 | 54 | 1000.5 |
| 20260506221531 | 59 | 321 | 0.9 | 3.5 | 0.00 | 0.85 | 0.62 | 52 | 1000.5 |
| 20260506221507 | 59 | 331 | 0.9 | 3.5 | 0.00 | 0.85 | 0.62 | 53 | 1000.5 |
| 20260506221020 | 59 | 1 | 0.9 | 4.3 | 0.00 | 0.85 | 0.62 | 52 | 1000.4 |
| 20260506221008 | 59 | 20 | 0.9 | 4.3 | 0.00 | 0.85 | 0.62 | 52 | 1000.4 |
| 20260506220520 | 59 | 72 | 1.7 | 4.3 | 0.00 | 0.85 | 0.62 | 50 | 1000.4 |
| 20260506220508 | 59 | 53 | 1.7 | 4.3 | 0.00 | 0.85 | 0.62 | 50 | 1000.4 |
| 20260506220020 | 59 | 28 | 0.9 | 3.5 | 0.00 | 0.85 | 0.62 | 54 | 1000.5 |
| 20260506220008 | 59 | 178 | 0.9 | 3.5 | 0.00 | 0.85 | 0.62 | 54 | 1000.5 |
| 20260506215510 | 59 | 240 | 1.7 | 4.3 | 0.00 | 0.95 | 0.62 | 52 | 1000.6 |
| 20260506215008 | 60 | 11 | 1.7 | 5.2 | 0.00 | 0.95 | 0.62 | 53 | 1000.6 |
| 20260506214530 | 60 | 327 | 2.6 | 5.2 | 0.00 | 0.95 | 0.62 | 53 | 1000.7 |
| 20260506214020 | 60 | 324 | 1.7 | 4.3 | 0.00 | 0.95 | 0.62 | 52 | 1000.6 |
| 20260506214009 | 60 | 325 | 1.7 | 3.5 | 0.00 | 0.95 | 0.62 | 53 | 1000.6 |
| 20260506213520 | 60 | 342 | 1.7 | 4.3 | 0.00 | 0.95 | 0.62 | 52 | 1000.6 |
| 20260506213508 | 60 | 328 | 1.7 | 4.3 | 0.00 | 0.95 | 0.62 | 52 | 1000.6 |
| 20260506213031 | 60 | 344 | 1.7 | 5.2 | 0.00 | 0.95 | 0.62 | 55 | 1000.6 |
| 20260506213008 | 60 | 324 | 1.7 | 5.2 | 0.00 | 0.95 | 0.62 | 55 | 1000.6 |
| 20260506212508 | 60 | 331 | 1.7 | 5.2 | 0.00 | 0.95 | 0.62 | 49 | 1000.6 |
| 20260506212034 | 60 | 348 | 2.6 | 5.2 | 0.00 | 0.95 | 0.62 | 49 | 1000.4 |
| 20260506211520 | 60 | 269 | 1.7 | 5.2 | 0.00 | 0.95 | 0.62 | 48 | 1000.4 |
| 20260506211508 | 60 | 314 | 1.7 | 5.2 | 0.00 | 0.95 | 0.62 | 48 | 1000.4 |
| 20260506211008 | 60 | 1 | 0.9 | 5.2 | 0.00 | 0.95 | 0.62 | 48 | 1000.5 |
| 20260506210507 | 60 | 163 | 1.7 | 4.3 | 0.00 | 0.95 | 0.62 | 49 | 1000.3 |
| 20260506210020 | 60 | 63 | 1.7 | 4.3 | 0.00 | 0.95 | 0.62 | 50 | 1000.3 |
| 20260506210008 | 60 | 349 | 1.7 | 4.3 | 0.00 | 0.95 | 0.62 | 50 | 1000.3 |
| 20260506205509 | 60 | 135 | 1.7 | 4.3 | 0.00 | 1.27 | 0.62 | 53 | 1000.2 |
| 20260506205019 | 60 | 178 | 1.7 | 4.3 | 0.00 | 1.27 | 0.62 | 53 | 1000.2 |
| 20260506204520 | 61 | 327 | 1.7 | 4.3 | 0.00 | 1.27 | 0.62 | 52 | 1000.1 |
| 20260506204508 | 61 | 325 | 1.7 | 4.3 | 0.00 | 1.27 | 0.62 | 52 | 1000.1 |
| 20260506204009 | 61 | 340 | 1.7 | 6.1 | 0.00 | 1.27 | 0.62 | 54 | 1000.0 |
| 20260506203533 | 61 | 63 | 2.6 | 4.3 | 0.00 | 1.27 | 0.62 | 53 | 1000.2 |
| 20260506203020 | 61 | 346 | 2.6 | 4.3 | 0.00 | 1.27 | 0.62 | 52 | 1000.3 |
| 20260506203007 | 61 | 327 | 2.6 | 4.3 | 0.00 | 1.27 | 0.62 | 54 | 1000.3 |
| 20260506202507 | 61 | 318 | 1.7 | 4.3 | 0.00 | 1.27 | 0.62 | 55 | 1000.1 |
| 20260506202042 | 61 | 63 | 1.7 | 4.3 | 0.00 | 1.27 | 0.62 | 53 | 1000.1 |
| 20260506202008 | 61 | 353 | 1.7 | 4.3 | 0.00 | 1.27 | 0.62 | 53 | 1000.1 |
| 20260506201520 | 61 | 339 | 1.7 | 5.2 | 0.00 | 1.27 | 0.62 | 54 | 1000.2 |
| 20260506201020 | 61 | 61 | 2.6 | 5.2 | 0.00 | 1.27 | 0.62 | 55 | 1000.3 |
| 20260506201008 | 61 | 344 | 2.6 | 5.2 | 0.00 | 1.27 | 0.62 | 55 | 1000.3 |
| 20260506200534 | 61 | 347 | 0.9 | 5.2 | 0.01 | 1.27 | 0.62 | 56 | 1000.4 |
| 20260506200508 | 61 | 331 | 0.9 | 5.2 | 0.01 | 1.27 | 0.62 | 56 | 1000.4 |
| 20260506200023 | 61 | 190 | 1.7 | 5.2 | 0.01 | 1.27 | 0.62 | 56 | 1000.3 |
| 20260506200008 | 61 | 105 | 1.7 | 5.2 | 0.01 | 1.27 | 0.62 | 55 | 1000.3 |
| 20260506195507 | 61 | 336 | 1.7 | 4.3 | 0.01 | 1.49 | 0.62 | 55 | 1000.3 |
| 20260506195032 | 61 | 314 | 1.7 | 4.3 | 0.01 | 1.49 | 0.62 | 54 | 1000.2 |
| 20260506194520 | 61 | 279 | 0.9 | 4.3 | 0.01 | 1.49 | 0.62 | 56 | 1000.3 |
| 20260506194508 | 61 | 147 | 0.9 | 4.3 | 0.01 | 1.49 | 0.62 | 56 | 1000.3 |
| 20260506194011 | 62 | 178 | 0.9 | 4.3 | 0.01 | 1.49 | 0.62 | 53 | 1000.3 |
| 20260506193520 | 62 | 314 | 0.9 | 3.5 | 0.01 | 1.49 | 0.62 | 49 | 1000.2 |
| 20260506193508 | 62 | 145 | 0.9 | 3.5 | 0.01 | 1.49 | 0.62 | 49 | 1000.2 |
| 20260506193020 | 62 | 319 | 0.9 | 3.5 | 0.01 | 1.49 | 0.62 | 49 | 1000.3 |
| 20260506193007 | 62 | 321 | 0.9 | 3.5 | 0.01 | 1.49 | 0.62 | 51 | 1000.3 |
| 20260506192521 | 62 | 1 | 1.7 | 3.5 | 0.01 | 1.49 | 0.62 | 52 | 1000.3 |
| 20260506192508 | 62 | 307 | 1.7 | 3.5 | 0.01 | 1.49 | 0.62 | 54 | 1000.3 |
| 20260506192021 | 62 | 324 | 0.9 | 6.1 | 0.01 | 1.49 | 0.62 | 50 | 1000.0 |
| 20260506192008 | 62 | 314 | 0.9 | 6.1 | 0.01 | 1.49 | 0.62 | 50 | 1000.0 |
| 20260506191520 | 62 | 349 | 1.7 | 6.1 | 0.01 | 1.49 | 0.62 | 50 | 999.9 |
| 20260506191508 | 62 | 327 | 1.7 | 6.1 | 0.01 | 1.49 | 0.62 | 50 | 999.9 |
| 20260506191008 | 62 | 317 | 2.6 | 4.3 | 0.00 | 1.48 | 0.61 | 54 | 999.8 |
| 20260506190520 | 62 | 190 | 1.7 | 6.1 | 0.00 | 1.48 | 0.61 | 53 | 999.8 |
| 20260506190509 | 62 | 216 | 1.7 | 6.1 | 0.00 | 1.48 | 0.61 | 53 | 999.8 |
| 20260506190031 | 62 | 187 | 1.7 | 6.1 | 0.00 | 1.48 | 0.61 | 52 | 999.8 |
| 20260506190008 | 62 | 346 | 1.7 | 6.1 | 0.00 | 1.48 | 0.61 | 52 | 999.8 |
| 20260506185519 | 61 | 25 | 1.7 | 4.3 | 0.01 | 1.48 | 0.61 | 58 | 999.9 |
| 20260506185020 | 61 | 213 | 1.7 | 5.2 | 0.01 | 1.48 | 0.61 | 53 | 999.9 |
| 20260506185008 | 61 | 178 | 1.7 | 5.2 | 0.01 | 1.48 | 0.61 | 52 | 999.9 |
| 20260506184520 | 61 | 331 | 2.6 | 5.2 | 0.01 | 1.48 | 0.61 | 52 | 999.9 |
| 20260506184508 | 61 | 9 | 2.6 | 5.2 | 0.01 | 1.48 | 0.61 | 52 | 999.9 |
| 20260506184020 | 62 | 178 | 1.7 | 5.2 | 0.01 | 1.48 | 0.61 | 51 | 999.9 |
| 20260506184008 | 62 | 240 | 1.7 | 5.2 | 0.01 | 1.48 | 0.61 | 51 | 999.9 |
| 20260506183520 | 62 | 8 | 1.7 | 5.2 | 0.01 | 1.48 | 0.61 | 54 | 999.9 |
| 20260506183509 | 62 | 340 | 1.7 | 4.3 | 0.01 | 1.48 | 0.61 | 54 | 999.9 |
| 20260506183020 | 62 | 316 | 1.7 | 6.1 | 0.01 | 1.48 | 0.61 | 54 | 999.9 |
| 20260506183007 | 62 | 336 | 1.7 | 6.1 | 0.01 | 1.48 | 0.61 | 54 | 999.9 |
| 20260506182533 | 62 | 338 | 2.6 | 6.1 | 0.01 | 1.48 | 0.61 | 51 | 999.8 |
| 20260506182508 | 62 | 328 | 2.6 | 6.1 | 0.01 | 1.48 | 0.61 | 51 | 999.8 |
| 20260506182018 | 62 | 213 | 1.7 | 3.5 | 0.01 | 1.48 | 0.61 | 53 | 999.9 |
| 20260506181520 | 62 | 269 | 1.7 | 6.1 | 0.01 | 1.48 | 0.61 | 48 | 999.8 |
| 20260506181508 | 62 | 331 | 1.7 | 6.1 | 0.01 | 1.48 | 0.61 | 50 | 999.8 |
| 20260506181019 | 61 | 150 | 2.6 | 7.8 | 0.01 | 1.48 | 0.61 | 54 | 999.8 |
| 20260506180520 | 61 | 240 | 1.7 | 7.8 | 0.01 | 1.48 | 0.61 | 55 | 999.8 |
| 20260506180508 | 61 | 152 | 2.6 | 7.8 | 0.01 | 1.48 | 0.61 | 55 | 999.8 |
| 20260506180020 | 61 | 234 | 1.7 | 5.2 | 0.02 | 1.48 | 0.61 | 55 | 999.8 |
| 20260506180013 | 61 | 250 | 1.7 | 5.2 | 0.02 | 1.48 | 0.61 | 55 | 999.8 |
| 20260506175507 | 61 | 1 | 2.6 | 4.3 | 0.01 | 1.47 | 0.60 | 54 | 1000.0 |
| 20260506175020 | 61 | 317 | 1.7 | 4.3 | 0.01 | 1.47 | 0.60 | 52 | 1000.1 |
| 20260506175008 | 61 | 1 | 1.7 | 5.2 | 0.01 | 1.47 | 0.60 | 52 | 1000.1 |
| 20260506174520 | 60 | 32 | 2.6 | 6.1 | 0.01 | 1.47 | 0.60 | 54 | 1000.3 |
| 20260506174508 | 60 | 326 | 2.6 | 6.1 | 0.01 | 1.47 | 0.60 | 54 | 1000.3 |
| 20260506174021 | 60 | 274 | 2.6 | 6.1 | 0.01 | 1.47 | 0.60 | 57 | 1000.2 |
| 20260506174011 | 60 | 4 | 2.6 | 5.2 | 0.01 | 1.47 | 0.60 | 57 | 1000.2 |
| 20260506173533 | 60 | 1 | 1.7 | 6.1 | 0.01 | 1.47 | 0.60 | 58 | 1000.4 |
| 20260506173507 | 60 | 350 | 1.7 | 6.1 | 0.01 | 1.47 | 0.60 | 58 | 1000.4 |
| 20260506173020 | 59 | 193 | 0.9 | 6.1 | 0.01 | 1.47 | 0.60 | 60 | 1000.3 |
| 20260506173008 | 59 | 89 | 1.7 | 6.1 | 0.01 | 1.47 | 0.60 | 60 | 1000.3 |
| 20260506172508 | 59 | 327 | 3.5 | 6.1 | 0.01 | 1.47 | 0.60 | 57 | 1000.4 |
| 20260506172007 | 59 | 127 | 1.7 | 6.1 | 0.01 | 1.47 | 0.60 | 56 | 1000.4 |
| 20260506171521 | 59 | 314 | 1.7 | 6.1 | 0.02 | 1.47 | 0.60 | 58 | 1000.5 |
| 20260506171508 | 59 | 340 | 1.7 | 6.1 | 0.02 | 1.47 | 0.60 | 58 | 1000.5 |
| 20260506171008 | 59 | 324 | 2.6 | 5.2 | 0.02 | 1.47 | 0.60 | 62 | 1000.5 |
| 20260506170532 | 58 | 46 | 1.7 | 4.3 | 0.02 | 1.47 | 0.60 | 60 | 1000.5 |
| 20260506170507 | 58 | 1 | 1.7 | 4.3 | 0.02 | 1.47 | 0.60 | 60 | 1000.5 |
| 20260506170024 | 58 | 351 | 1.7 | 7.0 | 0.01 | 1.46 | 0.59 | 62 | 1000.6 |
| 20260506170020 | 58 | 318 | 1.7 | 7.0 | 0.01 | 1.46 | 0.59 | 62 | 1000.6 |
| 20260506165522 | 58 | 169 | 2.6 | 7.0 | 0.01 | 1.46 | 0.59 | 64 | 1000.8 |
| 20260506165020 | 58 | 46 | 1.7 | 4.3 | 0.01 | 1.46 | 0.59 | 64 | 1000.7 |
| 20260506165008 | 58 | 323 | 1.7 | 4.3 | 0.01 | 1.46 | 0.59 | 64 | 1000.7 |
| 20260506164520 | 57 | 327 | 1.7 | 5.2 | 0.01 | 1.46 | 0.59 | 65 | 1000.7 |
| 20260506164507 | 57 | 13 | 1.7 | 5.2 | 0.01 | 1.46 | 0.59 | 65 | 1000.7 |
| 20260506164012 | 57 | 37 | 1.7 | 4.3 | 0.01 | 1.46 | 0.59 | 61 | 1000.7 |
| 20260506163520 | 57 | 349 | 2.6 | 5.2 | 0.02 | 1.46 | 0.59 | 61 | 1000.8 |
| 20260506163508 | 57 | 295 | 2.6 | 5.2 | 0.02 | 1.46 | 0.59 | 62 | 1000.8 |
| 20260506163032 | 57 | 300 | 2.6 | 5.2 | 0.02 | 1.46 | 0.59 | 63 | 1000.8 |
| 20260506163008 | 57 | 342 | 2.6 | 5.2 | 0.02 | 1.46 | 0.59 | 63 | 1000.8 |
| 20260506162508 | 57 | 9 | 1.7 | 6.1 | 0.02 | 1.46 | 0.59 | 60 | 1000.7 |
| 20260506162031 | 56 | 304 | 1.7 | 6.1 | 0.02 | 1.46 | 0.59 | 61 | 1000.6 |
| 20260506162011 | 56 | 350 | 1.7 | 6.1 | 0.02 | 1.46 | 0.59 | 61 | 1000.6 |
| 20260506161522 | 56 | 349 | 1.7 | 5.2 | 0.01 | 1.45 | 0.58 | 67 | 1000.6 |
| 20260506161519 | 56 | 37 | 1.7 | 5.2 | 0.01 | 1.45 | 0.58 | 67 | 1000.6 |
| 20260506161025 | 56 | 37 | 2.6 | 5.2 | 0.01 | 1.45 | 0.58 | 63 | 1000.6 |
| 20260506161013 | 56 | 347 | 2.6 | 5.2 | 0.01 | 1.45 | 0.58 | 63 | 1000.6 |
| 20260506160520 | 56 | 276 | 1.7 | 5.2 | 0.02 | 1.45 | 0.58 | 63 | 1000.4 |
| 20260506160508 | 56 | 340 | 1.7 | 6.1 | 0.02 | 1.45 | 0.58 | 65 | 1000.4 |
| 20260506160020 | 56 | 127 | 1.7 | 6.1 | 0.02 | 1.45 | 0.58 | 64 | 1000.5 |
| 20260506160008 | 56 | 148 | 2.6 | 6.1 | 0.02 | 1.45 | 0.58 | 62 | 1000.5 |
| 20260506155508 | 56 | 269 | 1.7 | 5.2 | 0.02 | 1.45 | 0.58 | 63 | 1000.5 |
| 20260506155030 | 56 | 34 | 1.7 | 6.1 | 0.02 | 1.45 | 0.58 | 67 | 1000.5 |
| 20260506154520 | 56 | 344 | 2.6 | 6.1 | 0.02 | 1.45 | 0.58 | 65 | 1000.5 |
| 20260506154508 | 56 | 344 | 2.6 | 6.1 | 0.02 | 1.45 | 0.58 | 65 | 1000.5 |
| 20260506154011 | 56 | 46 | 1.7 | 6.1 | 0.03 | 1.45 | 0.58 | 66 | 1000.4 |
| 20260506153533 | 56 | 32 | 2.6 | 6.1 | 0.02 | 1.44 | 0.57 | 68 | 1000.1 |
| 20260506153509 | 56 | 60 | 2.6 | 6.1 | 0.02 | 1.44 | 0.57 | 68 | 1000.1 |
| 20260506153020 | 56 | 46 | 2.6 | 6.1 | 0.02 | 1.44 | 0.57 | 68 | 1000.2 |
| 20260506153008 | 56 | 1 | 2.6 | 6.1 | 0.02 | 1.44 | 0.57 | 67 | 1000.2 |
| 20260506152508 | 56 | 18 | 1.7 | 6.1 | 0.02 | 1.44 | 0.57 | 69 | 1000.3 |
| 20260506152019 | 55 | 352 | 0.9 | 6.1 | 0.03 | 1.44 | 0.57 | 70 | 1000.4 |
| 20260506151531 | 55 | 39 | 2.6 | 6.1 | 0.03 | 1.44 | 0.57 | 68 | 1000.3 |
| 20260506151508 | 55 | 350 | 2.6 | 6.1 | 0.03 | 1.44 | 0.57 | 68 | 1000.3 |
| 20260506151008 | 55 | 46 | 1.7 | 5.2 | 0.03 | 1.44 | 0.57 | 70 | 1000.4 |
| 20260506150521 | 55 | 327 | 2.6 | 5.2 | 0.02 | 1.43 | 0.56 | 71 | 1000.0 |
| 20260506150508 | 54 | 334 | 2.6 | 5.2 | 0.02 | 1.43 | 0.56 | 71 | 1000.0 |
| 20260506150020 | 54 | 13 | 1.7 | 5.2 | 0.03 | 1.43 | 0.56 | 72 | 999.8 |
| 20260506150008 | 54 | 302 | 2.6 | 5.2 | 0.03 | 1.43 | 0.56 | 72 | 999.8 |
| 20260506145508 | 54 | 322 | 1.7 | 6.1 | 0.03 | 1.43 | 0.56 | 78 | 999.7 |